Regional Weather Roundup
Issued by NWS

Home | Current Version | Previous Version | Graphics & Text | Print | Product List | Glossary On
Versions: 1 2 3 4 5 6 7 8 9 10 11 12 13 14 15 16 17 18 19 20 21 22 23 24 25 26 27 28 29 30 31 32 33 34 35 36 37 38 39 40 41 42 43 44 45 46 47 48 49 50
000
ASUS43 KLSX 270557
RWRMO

WEATHER SUMMARY FOR MISSOURI
NATIONAL WEATHER SERVICE SPRINGFIELD MO
100 AM CDT WED JUL 27 2016

NOTE: "FAIR" INDICATES FEW OR NO CLOUDS BELOW 12,000 FEET WITH NO
       SIGNIFICANT WEATHER AND/OR OBSTRUCTIONS TO VISIBILITY.
       CURRENT SKY AND/OR WEATHER CONDITIONS ARE NOT AVAILABLE FOR
       CHILLICOTHE AND FARMINGTON.

MOZ001>031-035>038-043-044-053-054-270700-
...NORTHERN AND WESTERN MISSOURI...

CITY           SKY/WX    TMP DP  RH WIND       PRES   REMARKS
KANSAS CTY INT CLEAR     71  67  87 NE5       30.01S
6HR MIN TEMP:  71; 6HR MAX TEMP:  85;

LEE`S SUMMIT   CLEAR     75  68  78 NE5       30.00S
6HR MIN TEMP:  75; 6HR MAX TEMP:  84;

ST JOSEPH      CLEAR     68  65  90 NE5       30.00F
6HR MIN TEMP:  68; 6HR MAX TEMP:  85;


$$
MOZ066>068-077>081-088>096-101>105-270700-
...SOUTHWEST MISSOURI...

CITY           SKY/WX    TMP DP  RH WIND       PRES   REMARKS
SPRINGFIELD    CLOUDY    73  70  90 SE6       29.99F
6HR MIN TEMP:  73; 6HR MAX TEMP:  76; 6HR PCP:  0.01;

JOPLIN         CLOUDY    73  72  96 E3        29.99R
6HR MIN TEMP:  73; 6HR MAX TEMP:  76; 6HR PCP: TRACE;


$$
MOZ032>034-039>042-045>050-055>058-069>072-270700-
...CENTRAL MISSOURI...

CITY           SKY/WX    TMP DP  RH WIND       PRES   REMARKS
COLUMBIA       NOT AVBL
JEFFERSON CITY CLOUDY    73  72  96 E3        29.98S
6HR MIN TEMP:  73; 6HR MAX TEMP:  81;

ROLLA          FOG       72  71  97 SE3       29.99F VSB 3/4
6HR MIN TEMP:  72; 6HR MAX TEMP:  76; 6HR PCP: TRACE;

SEDALIA        PTCLDY    75  71  87 NE3       30.00S
6HR MIN TEMP:  75; 6HR MAX TEMP:  85;


$$
MOZ051-052-059>065-270700-
...EAST CENTRAL MISSOURI...

CITY           SKY/WX    TMP DP  RH WIND       PRES   REMARKS
ST LOUIS INTL  PTCLDY    79  75  87 NE6       29.99S
6HR MIN TEMP:  79; 6HR MAX TEMP:  84; 6HR PCP:  0.02;


$$
MOZ072>076-082>087-097>100-106>115-270700-
...SOUTH CENTRAL AND SOUTHEAST MISSOURI...

CITY           SKY/WX    TMP DP  RH WIND       PRES   REMARKS
CAPE GIRARDEAU CLEAR     75  73  93 NE3       29.97S
6HR MIN TEMP:  74; 6HR MAX TEMP:  77;

POPLAR BLUFF   PTCLDY    75  73  93 NW6       29.97S
6HR MIN TEMP:  75; 6HR MAX TEMP:  79;

WEST PLAINS    PTCLDY    73  70  90 NE5       30.02F
6HR MIN TEMP:  73; 6HR MAX TEMP:  76;


$$



USA.gov is the U.S. government's official web portal to all federal, state and local government web resources and services.